Location: Góry Miechowskie
(50.3599°N, 20.1803°E)
Time: 11:48:43
(UTC+00:00)

Courier 1B - Visible Passes

Search period start: 07 September 2024 00:00
Search period end: 17 September 2024 00:00
Orbit: 962 x 1208 km, 28.3° (Epoch: 07 September)

Date Brightness Start Highest point End Pass type
(mag) Time Alt. Az. Time Alt. Az. Time Alt. Az.
07 Sep 9.7 18:32:58 10° SSW 18:35:50 12° S 18:38:41 10° SSE visible
08 Sep 9.8 17:39:00 10° SSW 17:42:15 13° S 17:45:30 10° SSE visible
09 Sep 9.9 18:40:01 10° SSW 18:41:17 10° SSW 18:42:32 10° S visible
10 Sep 9.9 17:45:08 10° SSW 17:47:43 12° S 17:50:19 10° S visible
